Terug naar catalogus

FENGYUN 1C DEB

ActiefSSO
NORAD 35142·DEBRIS·🇨🇳 China

Gelanceerd May 10, 1999 vanaf Taiyuan Satellite Launch Center

Loading…

Volgende Passages (komende 24 uur)

TLE

VersSource: Space-Track

Epoch: Sep 14, 2026, 11:22 UTC

1 35142U 99025DLW 26257.47371257  .00000059  00000-0  78375-4 0  9996
2 35142  99.0656 247.6112 0107860 185.0165 327.5777 13.90644441895212

Volg FENGYUN 1C DEB in realtime met AllMySat

Download on the App Store